Terug naar catalogus

DELTA 1 DEB

ActiefSSO
NORAD 3812·DEBRIS·🇺🇸 United States

Gelanceerd Dec 15, 1968 vanaf Vandenberg Space Force Base

Loading…

Volgende Passages (komende 24 uur)

TLE

VersSource: Space-Track

Epoch: Sep 14, 2026, 12:15 UTC

1 03812U 68114D   26257.51087201 -.00000043  00000-0  30170-4 0  9993
2 03812 102.4353 281.0633 0071008  11.8899 148.1431 12.37790027608676

Volg DELTA 1 DEB in realtime met AllMySat

Download on the App Store